BEL2618 EDDF-EBBR

Flight info

Callsign BEL2618
Flight time 0h 40m
Altitude 22000
Route SOBRA8E SOBRA Y180 BITBU Y181 GOPAS N852 LNO
Aircraft A320/M-SDE3FGHIRWY/LB1

Departure

Time 2026-04-15 06:54
Airport Frankfurt Main Airport (EDDF)

Arrival

Time 2026-04-15 07:34
Airport Brussels Airport (EBBR)
Time Latitude Longitude Altitude Speed Heading
2026-04-15 06:36 50.04583 8.56612 353 ft 0 kts 114°
2026-04-15 06:44 50.04589 8.56592 359 ft 2 kts 114°
2026-04-15 06:45 50.04596 8.56568 353 ft 2 kts 114°
2026-04-15 06:45 50.04602 8.56545 356 ft 2 kts 114°
2026-04-15 06:45 50.04609 8.56520 355 ft 2 kts 136°
2026-04-15 06:45 50.04623 8.56509 354 ft 2 kts 205°
2026-04-15 06:46 50.04624 8.56509 354 ft 0 kts 205°
2026-04-15 06:48 50.04598 8.56487 351 ft 6 kts 211°
2026-04-15 06:48 50.04551 8.56443 346 ft 13 kts 210°
2026-04-15 06:48 50.04505 8.56335 350 ft 12 kts 249°
2026-04-15 06:48 50.04476 8.56220 351 ft 11 kts 249°
2026-04-15 06:49 50.04451 8.56115 355 ft 10 kts 249°
2026-04-15 06:49 50.04414 8.56039 346 ft 8 kts 202°
2026-04-15 06:49 50.04342 8.56056 347 ft 13 kts 164°
2026-04-15 06:50 50.04189 8.56059 354 ft 11 kts 161°
2026-04-15 06:50 50.04120 8.56095 348 ft 10 kts 170°
2026-04-15 06:50 50.04071 8.56044 350 ft 10 kts 242°
2026-04-15 06:50 50.04033 8.55881 355 ft 18 kts 250°
2026-04-15 06:51 50.03989 8.55695 353 ft 18 kts 249°
2026-04-15 06:51 50.03944 8.55512 349 ft 18 kts 249°
2026-04-15 06:51 50.03899 8.55332 348 ft 18 kts 249°
2026-04-15 06:51 50.03857 8.55157 347 ft 17 kts 249°
2026-04-15 06:52 50.03819 8.54990 352 ft 16 kts 251°
2026-04-15 06:52 50.03783 8.54839 347 ft 14 kts 249°
2026-04-15 06:52 50.03735 8.54721 350 ft 12 kts 214°
2026-04-15 06:52 50.03660 8.54732 352 ft 10 kts 159°
2026-04-15 06:53 50.03596 8.54771 350 ft 9 kts 154°
2026-04-15 06:53 50.03601 8.54881 354 ft 26 kts 71°
2026-04-15 06:53 50.03785 8.55646 352 ft 122 kts 70°
2026-04-15 06:53 50.04159 8.57185 682 ft 165 kts 68°
2026-04-15 06:54 50.04560 8.58863 1551 ft 164 kts 71°
2026-04-15 06:54 50.04909 8.60572 1863 ft 169 kts 85°
2026-04-15 06:54 50.04650 8.62379 1317 ft 183 kts 124°
2026-04-15 06:54 50.03627 8.63564 945 ft 185 kts 167°
2026-04-15 06:55 50.02367 8.63502 931 ft 201 kts 194°
2026-04-15 06:55 50.01061 8.62784 2307 ft 195 kts 202°
2026-04-15 06:55 49.99734 8.61881 3227 ft 221 kts 201°
2026-04-15 06:55 49.98375 8.60489 4082 ft 250 kts 219°
2026-04-15 06:56 49.96857 8.58936 5034 ft 273 kts 202°
2026-04-15 06:56 49.95047 8.57797 6034 ft 294 kts 200°
2026-04-15 06:56 49.93037 8.56624 6875 ft 323 kts 200°
2026-04-15 06:56 49.90791 8.55356 6995 ft 366 kts 200°
2026-04-15 06:57 49.88285 8.53963 7151 ft 391 kts 199°
2026-04-15 06:57 49.85771 8.52568 8543 ft 380 kts 200°
2026-04-15 06:57 49.83286 8.51056 9216 ft 393 kts 202°
2026-04-15 06:57 49.80677 8.49502 9861 ft 398 kts 201°
2026-04-15 06:58 49.78181 8.47849 11359 ft 385 kts 210°
2026-04-15 06:58 49.76055 8.45182 11625 ft 409 kts 230°
2026-04-15 06:58 49.74602 8.41334 12294 ft 413 kts 245°
2026-04-15 06:58 49.73698 8.37230 13878 ft 400 kts 258°
2026-04-15 06:59 49.73577 8.32841 14089 ft 423 kts 278°
2026-04-15 06:59 49.74499 8.28476 14622 ft 420 kts 293°
2026-04-15 06:59 49.75653 8.24480 15166 ft 408 kts 295°
2026-04-15 06:59 49.76863 8.20385 15169 ft 425 kts 295°
2026-04-15 07:00 49.78062 8.16327 15169 ft 403 kts 295°
2026-04-15 07:00 49.79197 8.12484 15392 ft 382 kts 295°
2026-04-15 07:00 49.80272 8.08840 16626 ft 363 kts 295°
2026-04-15 07:00 49.81298 8.05355 17894 ft 352 kts 296°
2026-04-15 07:01 49.82292 8.01886 18717 ft 353 kts 293°
2026-04-15 07:01 49.83080 7.98267 19342 ft 357 kts 288°
2026-04-15 07:01 49.83697 7.94522 19967 ft 360 kts 285°
2026-04-15 07:01 49.84231 7.90715 20579 ft 364 kts 283°
2026-04-15 07:02 49.84746 7.86857 21182 ft 367 kts 284°
2026-04-15 07:02 49.85271 7.83020 21749 ft 371 kts 284°
2026-04-15 07:02 49.85835 7.79106 21944 ft 372 kts 285°
2026-04-15 07:02 49.86425 7.75216 21988 ft 371 kts 285°
2026-04-15 07:03 49.87036 7.71326 21978 ft 370 kts 285°
2026-04-15 07:03 49.87651 7.67444 21990 ft 370 kts 285°
2026-04-15 07:03 49.88263 7.63573 21979 ft 370 kts 285°
2026-04-15 07:03 49.88871 7.59700 21979 ft 370 kts 285°
2026-04-15 07:04 49.89476 7.55823 21985 ft 370 kts 285°
2026-04-15 07:04 49.90078 7.51943 22015 ft 369 kts 285°
2026-04-15 07:04 49.90675 7.48052 22213 ft 371 kts 285°
2026-04-15 07:04 49.91270 7.44151 22256 ft 372 kts 285°
2026-04-15 07:05 49.91865 7.40241 22260 ft 372 kts 285°
2026-04-15 07:05 49.92458 7.36338 22247 ft 372 kts 285°
2026-04-15 07:05 49.93051 7.32431 22247 ft 372 kts 285°
2026-04-15 07:05 49.93643 7.28528 22239 ft 372 kts 285°
2026-04-15 07:06 49.94226 7.24673 22247 ft 371 kts 285°
2026-04-15 07:06 49.94813 7.20780 22248 ft 371 kts 285°
2026-04-15 07:06 49.95400 7.16880 22247 ft 370 kts 285°
2026-04-15 07:06 49.95984 7.12984 22248 ft 370 kts 285°
2026-04-15 07:07 49.96568 7.09091 22245 ft 370 kts 285°
2026-04-15 07:07 49.97151 7.05191 22246 ft 370 kts 285°
2026-04-15 07:07 49.97729 7.01289 22246 ft 370 kts 284°
2026-04-15 07:07 49.98302 6.97389 22245 ft 370 kts 284°
2026-04-15 07:08 49.98875 6.93487 22252 ft 370 kts 284°
2026-04-15 07:08 49.99231 6.89533 22244 ft 371 kts 275°
2026-04-15 07:08 49.99191 6.85512 22239 ft 372 kts 269°
2026-04-15 07:08 49.99071 6.81485 22246 ft 373 kts 269°
2026-04-15 07:09 49.98950 6.77461 22248 ft 373 kts 269°
2026-04-15 07:09 49.98828 6.73431 22247 ft 373 kts 269°
2026-04-15 07:09 49.98709 6.69458 22248 ft 373 kts 269°
2026-04-15 07:09 49.98588 6.65437 22247 ft 373 kts 269°
2026-04-15 07:10 49.98461 6.61406 22246 ft 373 kts 269°
2026-04-15 07:10 49.98333 6.57383 22248 ft 373 kts 269°
2026-04-15 07:10 49.98203 6.53358 22236 ft 373 kts 269°
2026-04-15 07:10 49.98075 6.49329 22236 ft 373 kts 269°
2026-04-15 07:11 49.97947 6.45307 22238 ft 373 kts 269°
2026-04-15 07:11 49.97818 6.41283 22236 ft 373 kts 269°
2026-04-15 07:11 49.97688 6.37257 22236 ft 373 kts 269°
2026-04-15 07:11 49.97555 6.33241 22242 ft 372 kts 269°
2026-04-15 07:12 49.97419 6.29214 22245 ft 372 kts 269°
2026-04-15 07:12 49.97282 6.25201 22244 ft 372 kts 269°
2026-04-15 07:12 49.97148 6.21186 22245 ft 372 kts 270°
2026-04-15 07:12 49.97256 6.17190 22250 ft 370 kts 279°
2026-04-15 07:13 49.97841 6.13315 22250 ft 368 kts 291°
2026-04-15 07:13 49.98927 6.09738 22250 ft 366 kts 303°
2026-04-15 07:13 50.00481 6.06616 22250 ft 365 kts 315°
2026-04-15 07:13 50.02431 6.04123 22249 ft 364 kts 328°
2026-04-15 07:14 50.04686 6.02355 22255 ft 364 kts 339°
2026-04-15 07:14 50.07039 6.01020 22250 ft 364 kts 340°
2026-04-15 07:14 50.09421 5.99657 22250 ft 364 kts 339°
2026-04-15 07:14 50.11796 5.98285 22250 ft 364 kts 339°
2026-04-15 07:15 50.14173 5.96906 22251 ft 364 kts 339°
2026-04-15 07:15 50.16557 5.95524 22250 ft 365 kts 339°
2026-04-15 07:15 50.18942 5.94140 22244 ft 367 kts 339°
2026-04-15 07:15 50.21337 5.92755 22244 ft 367 kts 339°
2026-04-15 07:16 50.23731 5.91367 22243 ft 367 kts 339°
2026-04-15 07:16 50.26126 5.89977 22244 ft 367 kts 339°
2026-04-15 07:16 50.28521 5.88592 22256 ft 367 kts 339°
2026-04-15 07:16 50.30919 5.87205 22249 ft 367 kts 339°
2026-04-15 07:17 50.33317 5.85815 22247 ft 367 kts 339°
2026-04-15 07:17 50.35713 5.84424 22247 ft 367 kts 339°
2026-04-15 07:17 50.38112 5.83027 22244 ft 367 kts 339°
2026-04-15 07:17 50.40510 5.81627 22147 ft 367 kts 339°
2026-04-15 07:18 50.42897 5.80232 21206 ft 377 kts 339°
2026-04-15 07:18 50.45369 5.78786 20492 ft 380 kts 339°
2026-04-15 07:18 50.47848 5.77337 19923 ft 378 kts 339°
2026-04-15 07:18 50.50303 5.75898 19418 ft 376 kts 339°
2026-04-15 07:19 50.52748 5.74462 18933 ft 373 kts 339°
2026-04-15 07:19 50.55172 5.73039 18436 ft 371 kts 339°
2026-04-15 07:19 50.57507 5.71377 17864 ft 367 kts 328°
2026-04-15 07:19 50.59513 5.69004 17101 ft 357 kts 315°
2026-04-15 07:20 50.61089 5.66106 16627 ft 341 kts 307°
2026-04-15 07:20 50.62536 5.63235 16201 ft 331 kts 308°
2026-04-15 07:20 50.63978 5.60404 15754 ft 330 kts 308°
2026-04-15 07:20 50.65416 5.57593 15320 ft 329 kts 308°
2026-04-15 07:21 50.66849 5.54789 14888 ft 328 kts 307°
2026-04-15 07:21 50.68281 5.51977 14449 ft 328 kts 307°
2026-04-15 07:21 50.69705 5.49178 14007 ft 327 kts 307°
2026-04-15 07:21 50.71127 5.46374 13519 ft 326 kts 307°
2026-04-15 07:22 50.72542 5.43583 13078 ft 324 kts 307°
2026-04-15 07:22 50.73941 5.40816 12635 ft 322 kts 307°
2026-04-15 07:22 50.75330 5.38059 12188 ft 320 kts 307°
2026-04-15 07:22 50.76710 5.35315 11745 ft 318 kts 307°
2026-04-15 07:23 50.77619 5.33507 11447 ft 317 kts 307°
2026-04-15 07:23 50.78990 5.30784 11002 ft 316 kts 307°
2026-04-15 07:23 50.80355 5.28069 10555 ft 314 kts 307°
2026-04-15 07:23 50.81692 5.25410 10386 ft 303 kts 307°
2026-04-15 07:24 50.82983 5.22842 10204 ft 294 kts 307°
2026-04-15 07:24 50.84647 5.19515 9791 ft 292 kts 307°
2026-04-15 07:24 50.85908 5.16985 9391 ft 291 kts 307°
2026-04-15 07:24 50.87148 5.14497 8845 ft 286 kts 307°
2026-04-15 07:25 50.87940 5.12788 8342 ft 284 kts 301°
2026-04-15 07:25 50.88996 5.10150 7621 ft 283 kts 301°
2026-04-15 07:25 50.90048 5.07540 7009 ft 279 kts 301°
2026-04-15 07:25 50.91094 5.04950 6413 ft 282 kts 301°
2026-04-15 07:26 50.92143 5.02351 6045 ft 278 kts 300°
2026-04-15 07:26 50.93172 4.99792 5519 ft 273 kts 300°
2026-04-15 07:26 50.94192 4.97247 4808 ft 274 kts 300°
2026-04-15 07:26 50.95191 4.94751 4583 ft 263 kts 300°
2026-04-15 07:27 50.96158 4.92332 4331 ft 254 kts 300°
2026-04-15 07:27 50.97062 4.90000 4198 ft 241 kts 292°
2026-04-15 07:27 50.97521 4.87541 4084 ft 227 kts 272°
2026-04-15 07:27 50.97430 4.85129 3986 ft 213 kts 253°
2026-04-15 07:28 50.96962 4.82966 3893 ft 203 kts 246°
2026-04-15 07:28 50.96488 4.80925 3832 ft 190 kts 247°
2026-04-15 07:28 50.96040 4.79063 3714 ft 170 kts 245°
2026-04-15 07:28 50.95660 4.77455 3597 ft 146 kts 245°
2026-04-15 07:29 50.95331 4.76035 3430 ft 131 kts 245°
2026-04-15 07:29 50.95022 4.74695 3142 ft 128 kts 245°
2026-04-15 07:29 50.94719 4.73375 2831 ft 127 kts 245°
2026-04-15 07:29 50.94415 4.72051 2544 ft 127 kts 245°
2026-04-15 07:30 50.94116 4.70742 2238 ft 127 kts 245°
2026-04-15 07:30 50.93817 4.69436 2052 ft 125 kts 245°
2026-04-15 07:30 50.93519 4.68132 2007 ft 126 kts 244°
2026-04-15 07:30 50.93220 4.66824 2008 ft 126 kts 244°
2026-04-15 07:31 50.92918 4.65508 1975 ft 129 kts 244°
2026-04-15 07:31 50.92615 4.64184 1775 ft 127 kts 244°
2026-04-15 07:31 50.92314 4.62871 1605 ft 126 kts 244°
2026-04-15 07:31 50.92015 4.61566 1431 ft 126 kts 244°
2026-04-15 07:32 50.91718 4.60270 1266 ft 125 kts 243°
2026-04-15 07:32 50.91421 4.58976 1078 ft 126 kts 244°
2026-04-15 07:32 50.91120 4.57667 905 ft 127 kts 245°
2026-04-15 07:32 50.90812 4.56329 742 ft 129 kts 244°
2026-04-15 07:33 50.90504 4.54990 571 ft 130 kts 246°
2026-04-15 07:33 50.90192 4.53632 392 ft 132 kts 245°
2026-04-15 07:33 50.89888 4.52279 211 ft 128 kts 246°
2026-04-15 07:33 50.89622 4.51138 174 ft 80 kts 248°
2026-04-15 07:34 50.89450 4.50408 176 ft 63 kts 249°
2026-04-15 07:34 50.89345 4.49955 177 ft 27 kts 252°
2026-04-15 07:34 50.89367 4.49674 173 ft 22 kts 301°
2026-04-15 07:34 50.89398 4.49621 170 ft 0 kts 315°
2026-04-15 07:35 50.89407 4.49604 169 ft 6 kts 311°
2026-04-15 07:35 50.89441 4.49530 167 ft 11 kts 305°
2026-04-15 07:35 50.89490 4.49424 164 ft 12 kts 306°
2026-04-15 07:36 50.89564 4.49265 158 ft 21 kts 307°
2026-04-15 07:36 50.89693 4.49163 149 ft 25 kts 12°
2026-04-15 07:36 50.89878 4.49245 139 ft 31 kts 15°
2026-04-15 07:36 50.90104 4.49336 131 ft 35 kts 14°
2026-04-15 07:37 50.90296 4.49402 124 ft 19 kts 353°
2026-04-15 07:37 50.90400 4.49310 123 ft 17 kts 334°
2026-04-15 07:37 50.90508 4.49229 122 ft 16 kts 336°
2026-04-15 07:37 50.90608 4.49158 121 ft 16 kts 334°
2026-04-15 07:38 50.90632 4.49034 119 ft 13 kts 244°
2026-04-15 07:38 50.90590 4.48893 120 ft 15 kts 244°
2026-04-15 07:38 50.90539 4.48726 117 ft 18 kts 244°
2026-04-15 07:38 50.90490 4.48536 118 ft 16 kts 245°
2026-04-15 07:39 50.90444 4.48379 120 ft 10 kts 245°
2026-04-15 07:39 50.90402 4.48334 118 ft 7 kts 150°
2026-04-15 07:39 50.90354 4.48364 119 ft 7 kts 156°
2026-04-15 07:39 50.90346 4.48370 120 ft 0 kts 156°